McCook, NE

11:51 AM CST on December 11, 2019 (GMT -0600)
McCook Municipal

Weather History for KMCK - September, 2019

Change the Weather History Date:

Wednesday, September 11, 2019

  Actual Average Record
Temperature  
Mean Temperature 78 °F 67 °F  
Max Temperature 95 °F 82 °F 103 °F (1927)
Min Temperature 64 °F 52 °F 38 °F (1959)
Cooling Degree Days 14    
Growing Degree Days 28 (Base 50)    
Moisture  
Dew Point 62 °F    
Average Humidity 60    
Maximum Humidity 88    
Minimum Humidity 36    
Precipitation  
Precipitation 0.15 in 0.05 in 1.10 in (1967)
Month to date precipitation 0.56  
Year to date precipitation 18.27  
Sea Level Pressure  
Sea Level Pressure 29.79 in    
Wind  
Wind Speed 14 mph ()    
Max Wind Speed 44 mph    
Max Gust Speed 64 mph    
Visibility 9.1 miles    
Events Rain , Thunderstorm    
T = Trace of Precipitation, MM = Missing Value Source: Averaged Metar Reports

Daily Weather History Graph

Daily Weather History Graph

Search for Another Location

Airport or City:

Astronomy

Sep. 11, 2019 Rise Set
Actual Time 7:19 AM CDT 7:58 PM CDT
Civil Twilight 6:51 AM CDT 8:25 PM CDT
Nautical Twilight 6:19 AM CDT 8:57 PM CDT
Astronomical Twilight 5:46 AM CDT 9:30 PM CDT
Moon 7:11 PM CDT 4:43 AM CDT
Length of Visible Light 13h 33m
Length of Day
12h 38m
Waxing Gibbous, 95% of the Moon is Illuminated
Sep 11
Waxing Gibbous
Sep 13
Full
Sep 21
Last Quarter
Sep 28
New
Oct 5
First Quarter

Hourly Weather History & Observations

Time (CDT) Temp. Heat Index Dew Point Humidity Pressure Visibility Wind Dir Wind Speed Gust Speed Precip Events Conditions
12:53 AM 78.1 °F - 61.0 °F 56% 29.78 in 10.0 mi South 18.4 mph 27.6 mph N/A   Unknown
1:53 AM 77.0 °F - 61.0 °F 58% 29.78 in 10.0 mi South 16.1 mph 28.8 mph N/A   Unknown
2:53 AM 75.0 °F - 62.1 °F 64% 29.77 in 10.0 mi South 11.5 mph - N/A   Unknown
3:53 AM 73.9 °F - 62.1 °F 66% 29.78 in 10.0 mi South 6.9 mph - N/A   Unknown
4:53 AM 72.0 °F - 60.1 °F 66% 29.80 in 10.0 mi Calm Calm - N/A   Unknown
5:53 AM 71.1 °F - 60.1 °F 68% 29.81 in 10.0 mi Variable 3.5 mph - N/A   Unknown
6:53 AM 68.0 °F - 61.0 °F 78% 29.82 in 10.0 mi ESE 3.5 mph - N/A   Unknown
7:53 AM 66.0 °F - 61.0 °F 84% 29.83 in 10.0 mi NE 6.9 mph - N/A   Unknown
8:53 AM 71.1 °F - 62.1 °F 73% 29.83 in 10.0 mi East 4.6 mph - N/A   Unknown
9:53 AM 79.0 °F - 63.0 °F 58% 29.82 in 10.0 mi South 8.1 mph - N/A   Unknown
10:53 AM 82.0 °F 83.4 °F 64.0 °F 54% 29.81 in 10.0 mi SSW 12.7 mph - N/A   Unknown
11:53 AM 84.0 °F 85.4 °F 64.0 °F 51% 29.80 in 10.0 mi South 12.7 mph - N/A   Unknown
12:53 PM 87.1 °F 88.3 °F 64.0 °F 46% 29.78 in 10.0 mi South 10.4 mph - N/A   Clear
1:53 PM 90.0 °F 91.3 °F 64.0 °F 42% 29.77 in 10.0 mi South 17.3 mph 24.2 mph N/A   Clear
2:53 PM 91.9 °F 93.3 °F 64.0 °F 39% 29.75 in 10.0 mi SSW 16.1 mph 23.0 mph N/A   Clear
3:53 PM 93.9 °F 95.2 °F 63.0 °F 36% 29.73 in 10.0 mi South 19.6 mph 29.9 mph N/A   Clear
4:53 PM 93.0 °F 94.6 °F 64.0 °F 38% 29.71 in 10.0 mi South 21.9 mph 33.4 mph N/A   Partly Cloudy
5:53 PM 93.0 °F 94.2 °F 63.0 °F 37% 29.70 in 10.0 mi South 16.1 mph 33.4 mph N/A   Partly Cloudy
6:53 PM 90.0 °F 90.6 °F 63.0 °F 40% 29.69 in 10.0 mi South 18.4 mph 32.2 mph N/A   Clear
7:53 PM 86.0 °F 86.8 °F 63.0 °F 46% 29.69 in 9.0 mi SSE 17.3 mph 28.8 mph N/A   Clear
8:53 PM 82.9 °F 84.0 °F 63.0 °F 51% 29.70 in 10.0 mi SSE 16.1 mph 27.6 mph N/A   Clear
9:53 PM 82.9 °F 83.7 °F 62.1 °F 49% 29.69 in 10.0 mi South 17.3 mph 31.1 mph N/A   Clear
10:49 PM 75.2 °F - 59.0 °F 57% 29.84 in 10.0 mi NW 32.2 mph 43.7 mph N/A   Scattered Clouds
10:53 PM 73.0 °F - 59.0 °F 61% 29.78 in 7.0 mi NW 43.7 mph 64.4 mph N/A   Scattered Clouds
11:00 PM 71.1 °F - 59.0 °F 66% 29.89 in 8.0 mi NNW 27.6 mph 64.4 mph N/A   Mostly Cloudy
11:13 PM 69.1 °F - 60.1 °F 73% 29.87 in 10.0 mi NNW 26.5 mph 42.6 mph N/A Thunderstorm Overcast
11:27 PM 66.9 °F - 59.0 °F 76% 29.88 in 10.0 mi North 28.8 mph 44.9 mph N/A Thunderstorm Thunderstorm
11:45 PM 64.0 °F - 60.1 °F 87% 29.89 in 5.0 mi North 27.6 mph 46.0 mph 0.03 in Rain , Thunderstorm Light Rain
11:51 PM 64.4 °F - 60.8 °F 88% 29.90 in 2.5 mi North 29.9 mph 43.7 mph 0.12 in Rain , Thunderstorm Heavy Thunderstorms and Rain
11:53 PM 64.0 °F - 60.1 °F 87% 29.83 in 2.0 mi North 25.3 mph 43.7 mph 0.15 in Rain , Thunderstorm Heavy Thunderstorms and Rain